DW0534 Hamburgsund SE current weather conditions

sailwx.info

Air temperature -0.0° C
Dewpoint -1.3° C

Last reported at 2019-Feb-20 08:00 UTC.
Time now 2019-Feb-20 08:26 UTC

Location: N 58°32' E 011°20'.
View on Google Maps.

See reports from other nearby stations

  
Tides and Currents Weather Stations Pressure Air Temp Water Temp Dewpoint Dewpoint Depression Visibility Wind Speed Wind Dir Waves Ship Positions
date/time (UTC)wind fromknots sea level pressurealtimeterstation pressurevisibilityair tempwater tempwave heightnotes
2019-Feb-20 08:00 -0.0
2019-Feb-20 07:45 -0.0
2019-Feb-20 07:30 -0.0
2019-Feb-20 07:15 -0.0
2019-Feb-20 07:00 -0.0
2019-Feb-20 06:45 -0.0
2019-Feb-20 06:30 -0.0
2019-Feb-20 06:15 -0.0
2019-Feb-20 06:00 -0.0
2019-Feb-20 05:45 -0.0
2019-Feb-20 05:30 -0.0
2019-Feb-20 05:15 -0.0
2019-Feb-20 05:00 -0.0
2019-Feb-20 04:45 -0.0
2019-Feb-20 04:30 -0.0
2019-Feb-20 04:15 0.6
2019-Feb-20 04:00 0.6
2019-Feb-20 03:45 0.6
2019-Feb-20 03:30 0.6
2019-Feb-20 03:15 1.1
2019-Feb-20 03:00 1.1
2019-Feb-20 02:45 1.1
2019-Feb-20 02:30 1.1
2019-Feb-20 02:15 1.7
2019-Feb-20 02:00 1.7
2019-Feb-20 01:45 2.2
2019-Feb-20 01:30 001 2.2
2019-Feb-20 01:15 335 0 gusting 1 2.8
2019-Feb-20 01:00 337 2.8
2019-Feb-20 00:45 337 2.8
2019-Feb-20 00:30 337 2.8
2019-Feb-20 00:15 337 2.8
2019-Feb-20 00:00 004 0 gusting 2 2.8
2019-Feb-19 23:45 306 0 gusting 0 2.8
2019-Feb-19 23:30 042 2.8
2019-Feb-19 23:15 001 0 gusting 2 2.8
2019-Feb-19 23:00 004 2 gusting 198 2.8
2019-Feb-19 22:45 011 0 gusting 1 2.8
2019-Feb-19 22:30 221 0 gusting 2 2.8
2019-Feb-19 22:15 337 3.3
2019-Feb-19 22:00 009 0 gusting 1 3.3
2019-Feb-19 21:45 029 0 gusting 2 3.3
2019-Feb-19 21:30 053 3.3
2019-Feb-19 21:15 068 0 gusting 1 3.3
2019-Feb-19 21:00 020 0 gusting 1 3.3
2019-Feb-19 20:45 054 0 gusting 3 3.3
2019-Feb-19 20:30 002 1 gusting 1 3.3
2019-Feb-19 20:15 018 0 gusting 2 3.3
2019-Feb-19 20:00 030 1 gusting 4 3.9
2019-Feb-19 19:45 025 0 gusting 2 3.9
2019-Feb-19 19:30 358 2 gusting 3 3.9
2019-Feb-19 19:15 169 0 gusting 1 3.9
2019-Feb-19 19:00 015 0 gusting 4 3.9
2019-Feb-19 18:45 042 1 gusting 2 4.4
2019-Feb-19 18:30 017 2 gusting 5 4.4
2019-Feb-19 18:15 023 1 gusting 6 4.4
2019-Feb-19 18:00 082 0 gusting 1 4.4
2019-Feb-19 17:45 300 2 gusting 4 4.4
2019-Feb-19 17:30 358 1 gusting 3 4.4
2019-Feb-19 17:15 289 0 gusting 1 3.9
2019-Feb-19 17:00 319 0 gusting 4 4.4
2019-Feb-19 16:45 238 0 gusting 1 3.9
2019-Feb-19 16:30 134 0 gusting 0 4.4
2019-Feb-19 16:15 342 1 gusting 3 4.4
2019-Feb-19 16:00 304 4.4
2019-Feb-19 15:45 316 0 gusting 2 4.4
2019-Feb-19 15:30 358 0 gusting 1 4.4
2019-Feb-19 15:15 245 1 gusting 4 4.4
2019-Feb-19 15:00 191 5.0
2019-Feb-19 14:45 243 2 gusting 5 5.0
2019-Feb-19 14:30 223 0 gusting 1 5.0
2019-Feb-19 14:15 300 0 gusting 1 5.0
2019-Feb-19 14:00 300 0 gusting 1 5.6
2019-Feb-19 13:45 300 0 gusting 1 5.6
2019-Feb-19 13:30 300 0 gusting 1 5.6
2019-Feb-19 13:15 175 1 gusting 6 5.6
2019-Feb-19 13:00 239 1 gusting 4 5.6
2019-Feb-19 12:45 239 1 gusting 4 5.6
2019-Feb-19 12:30 5.6
2019-Feb-19 12:15 5.6
2019-Feb-19 12:00 5.6
2019-Feb-19 11:45 5.6
2019-Feb-19 11:30 5.0
2019-Feb-19 11:15 5.0
2019-Feb-19 11:00 5.0
2019-Feb-19 10:45 5.0
2019-Feb-19 10:30 5.0
2019-Feb-19 10:15 5.0
2019-Feb-19 10:00 5.0
2019-Feb-19 09:45 5.0
2019-Feb-19 09:30 5.0
2019-Feb-19 09:15 5.0
2019-Feb-19 09:00 5.0
2019-Feb-19 08:45 5.0
2019-Feb-19 08:30 5.0
2019-Feb-19 08:15 5.0
2019-Feb-19 08:00 5.0
2019-Feb-19 07:45 5.0
2019-Feb-19 07:30 5.0
2019-Feb-19 07:00 5.0
2019-Feb-19 06:45 5.0
2019-Feb-19 06:30 5.0
2019-Feb-19 06:15 5.0
2019-Feb-19 06:00 5.0
2019-Feb-19 05:45 5.0
2019-Feb-19 05:30 5.0
2019-Feb-19 05:15 5.0
2019-Feb-19 05:00 5.0
2019-Feb-19 04:45 5.0
2019-Feb-19 04:30 5.0
2019-Feb-19 04:15 5.0
2019-Feb-19 04:00 5.0
2019-Feb-19 03:45 5.0
2019-Feb-19 03:30 5.0
2019-Feb-19 03:15 5.0
2019-Feb-19 03:00 5.0
2019-Feb-19 02:45 5.0
2019-Feb-19 02:30 5.0
2019-Feb-19 02:15 5.0
2019-Feb-19 02:00 5.0
2019-Feb-19 01:45 5.0
2019-Feb-19 01:30 5.0
2019-Feb-19 01:15 5.0
2019-Feb-19 01:00 5.0
2019-Feb-19 00:45 5.0
2019-Feb-19 00:30 5.0
2019-Feb-19 00:15 5.0
2019-Feb-19 00:00 5.6
2019-Feb-18 23:45 5.6
2019-Feb-18 23:30 5.0
2019-Feb-18 23:15 5.0
2019-Feb-18 23:00 5.0
2019-Feb-18 22:45 5.0
2019-Feb-18 22:30 5.0
2019-Feb-18 22:15 5.0
2019-Feb-18 22:00 5.6
2019-Feb-18 21:45 5.0
2019-Feb-18 21:30 5.0
2019-Feb-18 21:15 5.0
2019-Feb-18 21:00 5.0
2019-Feb-18 20:45 5.6
2019-Feb-18 20:30 5.0
2019-Feb-18 20:15 5.0
2019-Feb-18 20:00 5.0
2019-Feb-18 19:45 5.0
2019-Feb-18 19:30 4.4
2019-Feb-18 19:15 4.4
2019-Feb-18 19:00 4.4
2019-Feb-18 18:45 4.4
2019-Feb-18 18:30 4.4
2019-Feb-18 18:15 4.4
2019-Feb-18 18:00 4.4
2019-Feb-18 17:45 4.4
2019-Feb-18 17:30 4.4
2019-Feb-18 17:15 5.0
2019-Feb-18 17:00 4.4
2019-Feb-18 16:45 4.4
2019-Feb-18 16:30 4.4
2019-Feb-18 16:15 4.4
2019-Feb-18 16:00 4.4
2019-Feb-18 15:45 4.4
2019-Feb-18 15:30 4.4
2019-Feb-18 15:15 4.4
2019-Feb-18 15:00 4.4
2019-Feb-18 14:45 4.4
2019-Feb-18 14:30 4.4
2019-Feb-18 14:15 4.4
2019-Feb-18 14:00 4.4
2019-Feb-18 13:45 4.4
2019-Feb-18 13:30 4.4
2019-Feb-18 13:15 4.4
2019-Feb-18 13:00 4.4
2019-Feb-18 12:45 4.4
2019-Feb-18 12:30 4.4
2019-Feb-18 12:15 4.4
2019-Feb-18 12:00 4.4
2019-Feb-18 11:45 4.4
2019-Feb-18 11:30 4.4
2019-Feb-18 11:15 4.4
2019-Feb-18 11:00 4.4
2019-Feb-18 10:45 4.4
2019-Feb-18 10:30 3.9
2019-Feb-18 10:15 3.9
2019-Feb-18 10:00 3.9
2019-Feb-18 09:45 4.4
2019-Feb-18 09:30 3.9
2019-Feb-18 09:15 4.4
2019-Feb-18 09:00 4.4
2019-Feb-18 08:45 4.4
2019-Feb-18 08:30 4.4
2019-Feb-18 08:15 4.4
2019-Feb-18 08:00 4.4